Location: Emblem
(62.4273°N, 6.4710°E)
Time: 12:24:21
(UTC+01:00)

ISS - Visible Passes

Search period start: 23 February 2024 00:00
Search period end: 04 March 2024 00:00
Orbit: 414 x 417 km, 51.6° (Epoch: 23 February)

Date Brightness Start Highest point End Pass type
(mag) Time Alt. Az. Time Alt. Az. Time Alt. Az.
23 Feb -1.0 06:06:53 10° S 06:08:02 11° SSE 06:09:10 10° SE visible
24 Feb -1.2 06:53:35 10° SSW 06:55:22 14° S 06:57:09 10° SSE visible
25 Feb -1.2 06:05:14 10° SSW 06:06:56 13° S 06:08:38 10° SE visible
26 Feb -1.3 05:18:07 12° S 05:18:29 12° SSE 05:19:58 10° SE visible
26 Feb -1.3 06:52:36 10° SW 06:54:13 13° S 06:55:50 10° SSE visible
27 Feb -1.4 06:04:06 10° SSW 06:05:44 14° S 06:07:28 10° SSE visible
28 Feb -1.4 05:17:10 14° S 05:17:12 14° S 05:18:58 10° SE visible
28 Feb -1.2 06:52:08 10° SSW 06:52:54 11° SSW 06:53:40 10° S visible
29 Feb -0.9 04:30:13 10° SE 04:30:13 10° SE 04:30:18 10° SE visible
29 Feb -1.4 06:03:05 10° SW 06:04:22 12° SSW 06:05:44 10° SSE visible
01 Mar -1.4 05:16:07 13° S 05:16:07 13° S 05:17:25 10° SSE visible
03 Mar -1.2 05:15:05 10° S 05:15:05 10° S 05:15:07 10° S visible
